Change the Weather History Date:

Wednesday, March 27, 2013

  Actual Average Record
Temperature  
Mean Temperature 35 °F 32 °F  
Max Temperature 47 °F 42 °F 62 °F (1978)
Min Temperature 22 °F 21 °F -8 °F (1944)
Degree Days  
Heating Degree Days 30 33  
Month to date heating degree days 965 984  
Since 1 July heating degree days 6994 7659  
Cooling Degree Days 0 0  
Month to date cooling degree days 0 0  
Year to date cooling degree days 0 0  
Moisture  
Dew Point 27 °F    
Average Humidity 73    
Maximum Humidity 92    
Minimum Humidity 53    
Precipitation  
Precipitation T in 0.08 in 2.00 in (2005)
Month to date precipitation 1.30 1.85  
Year to date precipitation 5.64 5.32  
Sea Level Pressure  
Sea Level Pressure 30.01 in    
Wind  
Wind Speed 1 mph (ENE)    
Max Wind Speed 7 mph    
Max Gust Speed 9 mph    
Visibility 10 miles    
Events Rain    
T = Trace of Precipitation, MM = Missing Value Source: NWS Daily Summary

Daily Weather History Graph

Daily Weather History Graph

Search for Another Location

Airport or City:

Trip Planner

Search our weather history database for the weather conditions in past years. The results will help you decide how hot, cold, wet, or windy it might be!

Date:

Astronomy

Mar. 27, 2013 Rise Set
Actual Time 7:33 AM MDT 8:06 PM MDT
Civil Twilight 7:04 AM MDT 8:35 PM MDT
Nautical Twilight 6:29 AM MDT 9:10 PM MDT
Astronomical Twilight 5:53 AM MDT 9:46 PM MDT
Moon 8:58 PM MDT (3/27) 7:25 AM MDT (3/27)
Length of Visible Light 13h 31m
Length of Day
12h 32m
Full, 100% of the Moon is Illuminated
Mar 27
Full
Apr 2
Last Quarter
Apr 10
New
Apr 18
First Quarter
Apr 25
Full

Hourly Weather History & Observations

Time (MDT) Temp. Windchill Dew Point Humidity Pressure Visibility Wind Dir Wind Speed Gust Speed Precip Events Conditions
12:51 AM 30.0 °F - 26.1 °F 85% 29.99 in 10.0 mi Calm Calm - N/A   Overcast
1:51 AM 28.0 °F - 24.1 °F 85% 29.98 in 10.0 mi Calm Calm - N/A   Scattered Clouds
2:51 AM 27.0 °F - 24.1 °F 89% 29.98 in 10.0 mi Calm Calm - N/A   Overcast
3:51 AM 27.0 °F - 23.0 °F 85% 29.97 in 10.0 mi Calm Calm - N/A   Partly Cloudy
4:51 AM 25.0 °F - 21.9 °F 88% 29.98 in 10.0 mi Calm Calm - N/A   Clear
5:51 AM 24.1 °F - 21.9 °F 91% 29.99 in 10.0 mi Calm Calm - N/A   Scattered Clouds
6:51 AM 25.0 °F - 21.9 °F 88% 29.99 in 10.0 mi Calm Calm - N/A   Overcast
7:51 AM 24.1 °F - 21.9 °F 91% 30.01 in 10.0 mi Calm Calm - N/A   Mostly Cloudy
8:51 AM 28.9 °F - 25.0 °F 85% 30.02 in 10.0 mi Calm Calm - N/A   Overcast
9:51 AM 32.0 °F - 26.1 °F 79% 30.02 in 10.0 mi Calm Calm - N/A   Overcast
10:51 AM 32.0 °F - 27.0 °F 82% 30.04 in 10.0 mi Calm Calm - N/A   Overcast
11:51 AM 34.0 °F 31.0 °F 28.0 °F 79% 30.05 in 10.0 mi South 3.5 mph - N/A   Overcast
12:51 PM 36.0 °F - 28.9 °F 76% 30.05 in 10.0 mi Calm Calm - N/A   Overcast
1:51 PM 41.0 °F - 30.0 °F 65% 30.03 in 10.0 mi Calm Calm - N/A   Overcast
2:51 PM 41.0 °F 39.0 °F 32.0 °F 70% 30.02 in 10.0 mi WSW 3.5 mph - 0.00 in Rain Light Rain
3:51 PM 43.0 °F - 30.0 °F 60% 30.01 in 10.0 mi Calm Calm - 0.00 in   Overcast
4:51 PM 43.0 °F - 30.9 °F 62% 30.01 in 10.0 mi Calm Calm - 0.00 in Rain Light Rain
5:51 PM 43.0 °F - 30.0 °F 60% 30.01 in 10.0 mi Calm Calm - 0.00 in   Overcast
6:51 PM 45.0 °F - 28.9 °F 53% 29.99 in 10.0 mi Calm Calm - N/A   Mostly Cloudy
7:51 PM 43.0 °F - 30.0 °F 60% 30.01 in 10.0 mi Calm Calm - N/A   Overcast
8:51 PM 37.9 °F 35.5 °F 28.9 °F 70% 30.02 in 10.0 mi NE 3.5 mph - N/A   Overcast
9:51 PM 37.0 °F 31.6 °F 28.9 °F 73% 30.03 in 10.0 mi North 6.9 mph - N/A   Partly Cloudy
10:51 PM 34.0 °F - 28.0 °F 79% 30.04 in 10.0 mi Calm Calm - N/A   Overcast
11:51 PM 33.1 °F - 28.0 °F 82% 30.04 in 10.0 mi Calm Calm - N/A   Overcast